CZ-6A DEB, 61302

Orbit data source: Space-Track

CZ-6A DEB, 61302 is space debris in LEO originally from a launch on Tue, 06 Aug 2024 UTC launched from the Taiyaun Space Center, China (TSC). Debris objects in space refer to the collection of defunct objects orbiting the Earth. Examples of debris include non-operational satellites, rocket bodies, and fragments generated from explosions, collisions, or faulty payload assembly.

Loading next visibility...
Identifier
61302, 2024-140TP
Orbit
LEO
Country
Flag of CNCN / PRC
Related business
Manufacturer
SAST
Mission
Spacecraft
Bus & Motor
Unknown
Mass
Unknown
Launch date (UTC)
2024-08-06 (2 years ago)
Launch vehicle
Unknown
Launch site
Taiyaun Space Center, China (TSC)
Object type
Payload
Rocket body
Debris
Shape & HBR
Unknown shape, 0.1 m
Radar Cross Section
Small (<0.1 m²)

Expand to show TLE details & history
Last TLE update: 19 hours ago

TLE from 19 hours ago
0 CZ-6A DEB
1 61302U 24140TP  26129.86324985  .00004583  00000-0  95904-3 0  9998
2 61302  88.8911 266.8001 0060323  49.3769 311.2667 14.58499454 89921
Epoch: 2026-05-09T20:43Z
TLE epoch observation values (Epoch: 2026-05-09T20:43:04.787Z)
Latitude
0.00005°
Longitude
88.35557°
Altitude
673.117 km
Speed
7.535 km/s
True Right ascension
17h 47m 12s
True Declination
0° 00' 00"
Sunlit
Object was in full shadow at epoch
Visualization orbit readout
Latitude
Unknown
Longitude
Unknown
Altitude
Unknown
Speed
Unknown
Apparent Right ascension
Unknown
Apparent Declination
Unknown
Sunlit
N/A
Visualization observer readout
Local Sidereal Time
00:23:06
Azimuth
Unknown
Elevation
Unknown
Doppler factor
Unknown
Orbital elements
Apogee altitude
737.587 km
Perigee altitude
652.253 km
Semi-major axis
7,073.057 km
Eccentricity
0.00603
Inclination
88.8911°
RAAN
266.8001°
Arg. of periapsis
49.3769°
True anomaly
310.74453°
Mean anomaly
311.2667°
Eccentric anomaly
311.00588°
Mean motion
3.64865 °/min
Orbital period
98.67 mins
BSTAR
0.00095904
Loading maneuver chart data...
Computing Atmospheric mass density...
Loading historical data...
Loading historical data...
Loading historical data...
Loading historical data...
Loading historical data...
Loading historical data...
Loading historical data...

Documentation

Showing up to 5 results
|